Preston, MN

4:00 AM CST on February 21, 2017 (GMT -0600)
Preston

Weather History for KFKA - February, 2013

Change the Weather History Date:

Wednesday, February 13, 2013

  Actual Average (KRST) Record (KRST)
Temperature  
Mean Temperature 28 °F -  
Max Temperature 36 °F 26 °F 47 °F (1919)
Min Temperature 20 °F 10 °F -16 °F (1971)
Degree Days  
Heating Degree Days 38    
Moisture  
Dew Point 26 °F    
Average Humidity 88    
Maximum Humidity 96    
Minimum Humidity 73    
Precipitation  
Precipitation 0.00 in - - ()
Sea Level Pressure  
Sea Level Pressure 29.70 in    
Wind  
Wind Speed 6 mph (WSW)    
Max Wind Speed 12 mph    
Max Gust Speed -    
Visibility 10 miles    
Events      
Averages and records for this station are not official NWS values.
T = Trace of Precipitation, MM = Missing Value Source: NWS Daily Summary

Daily Weather History Graph

Daily Weather History Graph

Search for Another Location

Airport or City:

Trip Planner

Search our weather history database for the weather conditions in past years. The results will help you decide how hot, cold, wet, or windy it might be!

Date:

Astronomy

Feb. 13, 2013 Rise Set
Actual Time 7:09 AM CST 5:36 PM CST
Civil Twilight 6:40 AM CST 6:06 PM CST
Nautical Twilight 6:06 AM CST 6:39 PM CST
Astronomical Twilight 5:33 AM CST 7:13 PM CST
Moon 8:30 AM CST (2/13) 9:49 PM CST (2/13)
Length of Visible Light 11h 26m
Length of Day
10h 26m
Waxing Crescent, 14% of the Moon is Illuminated
Feb 13
Waxing Crescent
Feb 17
First Quarter
Feb 25
Full
Mar 4
Last Quarter
Mar 11
New

Hourly Weather History & Observations

Time (CST) Temp. Windchill Dew Point Humidity Pressure Visibility Wind Dir Wind Speed Gust Speed Precip Events Conditions
12:09 AM 23.4 °F 17.4 °F 22.1 °F 95% 29.81 in 7.0 mi WNW 4.6 mph - N/A   Clear
12:29 AM 24.3 °F 18.4 °F 23.2 °F 96% 29.80 in 7.0 mi WNW 4.6 mph - N/A   Clear
12:49 AM 24.3 °F 19.9 °F 23.0 °F 95% 29.80 in 10.0 mi West 3.5 mph - N/A   Clear
1:09 AM 24.6 °F 18.8 °F 22.6 °F 92% 29.80 in 10.0 mi West 4.6 mph - N/A   Clear
1:29 AM 24.3 °F 17.3 °F 22.1 °F 91% 29.79 in 10.0 mi West 5.8 mph - N/A   Clear
1:49 AM 23.9 °F 18.0 °F 21.2 °F 89% 29.79 in 10.0 mi WSW 4.6 mph - N/A   Clear
2:09 AM 23.7 °F 17.8 °F 21.4 °F 91% 29.78 in 10.0 mi SW 4.6 mph - N/A   Clear
2:29 AM 23.0 °F 15.8 °F 21.2 °F 93% 29.78 in 10.0 mi SW 5.8 mph - N/A   Clear
2:49 AM 22.6 °F 18.0 °F 21.0 °F 93% 29.77 in 10.0 mi WSW 3.5 mph - N/A   Clear
3:09 AM 23.0 °F 17.0 °F 21.0 °F 92% 29.77 in 10.0 mi SSW 4.6 mph - N/A   Clear
3:29 AM 22.8 °F 15.5 °F 20.7 °F 91% 29.76 in 10.0 mi West 5.8 mph - N/A   Clear
3:49 AM 22.1 °F 12.8 °F 19.9 °F 91% 29.76 in 10.0 mi West 8.1 mph - N/A   Clear
4:10 AM 22.1 °F 13.7 °F 20.1 °F 92% 29.76 in 10.0 mi West 6.9 mph - N/A   Clear
4:29 AM 22.1 °F 13.7 °F 20.1 °F 92% 29.76 in 10.0 mi West 6.9 mph - N/A   Clear
4:49 AM 21.9 °F 14.5 °F 19.4 °F 90% 29.76 in 10.0 mi West 5.8 mph - N/A   Mostly Cloudy
5:09 AM 22.1 °F 14.7 °F 19.9 °F 91% 29.76 in 10.0 mi West 5.8 mph - N/A   Overcast
5:29 AM 22.3 °F 14.9 °F 19.9 °F 91% 29.75 in 10.0 mi West 5.8 mph - N/A   Overcast
5:49 AM 21.9 °F 13.4 °F 19.8 °F 91% 29.75 in 10.0 mi West 6.9 mph - N/A   Scattered Clouds
6:10 AM 21.9 °F 13.4 °F 19.9 °F 92% 29.75 in 10.0 mi West 6.9 mph - N/A   Clear
6:29 AM 21.0 °F 11.4 °F 19.0 °F 92% 29.75 in 10.0 mi West 8.1 mph - N/A   Clear
6:50 AM 20.8 °F 12.1 °F 18.9 °F 92% 29.75 in 10.0 mi West 6.9 mph - N/A   Clear
7:09 AM 20.3 °F 11.5 °F 18.5 °F 93% 29.74 in 10.0 mi West 6.9 mph - N/A   Clear
7:30 AM 20.5 °F 14.0 °F 18.5 °F 92% 29.74 in 10.0 mi WSW 4.6 mph - N/A   Clear
7:50 AM 21.2 °F 13.6 °F 19.2 °F 92% 29.74 in 10.0 mi WSW 5.8 mph - N/A   Clear
8:10 AM 22.3 °F 14.9 °F 19.6 °F 89% 29.74 in 10.0 mi WSW 5.8 mph - N/A   Clear
8:30 AM 23.0 °F 17.0 °F 20.3 °F 89% 29.73 in 10.0 mi West 4.6 mph - N/A   Clear
8:49 AM 23.9 °F 18.0 °F 20.8 °F 88% 29.72 in 10.0 mi SW 4.6 mph - N/A   Clear
9:10 AM 25.7 °F 18.0 °F 22.1 °F 86% 29.72 in 10.0 mi West 6.9 mph - N/A   Clear
9:30 AM 26.8 °F 17.7 °F 23.0 °F 86% 29.73 in 10.0 mi West 9.2 mph - N/A   Clear
9:50 AM 28.2 °F 20.2 °F 24.3 °F 85% 29.73 in 10.0 mi West 8.1 mph - N/A   Clear
10:10 AM 28.9 °F 20.4 °F 25.0 °F 85% 29.73 in 10.0 mi West 9.2 mph - N/A   Clear
10:29 AM 29.8 °F 22.2 °F 25.7 °F 85% 29.73 in 10.0 mi West 8.1 mph - N/A   Scattered Clouds
11:10 AM 31.8 °F 24.6 °F 26.8 °F 82% 29.73 in 10.0 mi West 8.1 mph - N/A   Overcast
11:29 AM 32.0 °F 25.6 °F 26.6 °F 80% 29.72 in 10.0 mi West 6.9 mph - N/A   Overcast
11:50 AM 32.4 °F 26.0 °F 26.6 °F 79% 29.71 in 10.0 mi West 6.9 mph - N/A   Overcast
12:09 PM 33.1 °F 27.7 °F 27.1 °F 79% 29.71 in 10.0 mi WSW 5.8 mph - N/A   Overcast
12:50 PM 34.7 °F 28.8 °F 27.1 °F 74% 29.70 in 10.0 mi WSW 6.9 mph - N/A   Overcast
1:10 PM 34.7 °F 27.5 °F 26.8 °F 73% 29.70 in 10.0 mi West 9.2 mph - N/A   Overcast
1:30 PM 34.2 °F 26.8 °F 27.5 °F 77% 29.69 in 10.0 mi WSW 9.2 mph - N/A   Overcast
1:50 PM 33.8 °F 27.0 °F 28.4 °F 81% 29.69 in 10.0 mi WSW 8.1 mph - N/A   Overcast
2:10 PM 34.0 °F 29.8 °F 28.2 °F 79% 29.69 in 10.0 mi WSW 4.6 mph - N/A   Overcast
2:29 PM 33.8 °F 28.6 °F 28.4 °F 81% 29.68 in 10.0 mi WSW 5.8 mph - N/A   Overcast
2:50 PM 33.8 °F 27.7 °F 28.8 °F 82% 29.68 in 10.0 mi SSW 6.9 mph - N/A   Overcast
3:09 PM 34.0 °F 27.2 °F 28.4 °F 80% 29.67 in 10.0 mi SSW 8.1 mph - N/A   Overcast
3:29 PM 34.0 °F 26.6 °F 28.9 °F 82% 29.67 in 10.0 mi SSW 9.2 mph - N/A   Overcast
3:49 PM 34.7 °F 28.8 °F 29.7 °F 82% 29.67 in 10.0 mi South 6.9 mph - N/A   Mostly Cloudy
4:10 PM 35.2 °F 28.8 °F 29.5 °F 80% 29.66 in 10.0 mi SW 8.1 mph - N/A   Scattered Clouds
4:30 PM 34.3 °F 27.0 °F 29.3 °F 82% 29.66 in 10.0 mi SSW 9.2 mph - N/A   Scattered Clouds
4:50 PM 34.0 °F 27.2 °F 29.8 °F 85% 29.66 in 10.0 mi SSW 8.1 mph - N/A   Mostly Cloudy
5:09 PM 34.0 °F 26.0 °F 30.4 °F 87% 29.66 in 10.0 mi SSW 10.4 mph - N/A   Overcast
5:30 PM 34.0 °F 26.6 °F 30.7 °F 88% 29.65 in 10.0 mi SSW 9.2 mph - N/A   Overcast
5:49 PM 33.8 °F 27.7 °F 31.1 °F 90% 29.65 in 10.0 mi SSW 6.9 mph - N/A   Overcast
6:10 PM 34.0 °F 26.6 °F 31.1 °F 89% 29.65 in 10.0 mi South 9.2 mph - N/A   Overcast
6:29 PM 34.0 °F 26.0 °F 31.3 °F 90% 29.65 in 10.0 mi South 10.4 mph - N/A   Overcast
6:50 PM 33.8 °F 27.7 °F 31.5 °F 91% 29.64 in 10.0 mi South 6.9 mph - N/A   Overcast
7:09 PM 33.6 °F 27.5 °F 31.6 °F 92% 29.63 in 10.0 mi South 6.9 mph - N/A   Overcast
7:30 PM 33.8 °F 27.0 °F 31.8 °F 92% 29.63 in 10.0 mi South 8.1 mph - N/A   Overcast
7:49 PM 34.0 °F 27.2 °F 31.8 °F 92% 29.62 in 10.0 mi South 8.1 mph - N/A   Overcast
8:09 PM 34.2 °F 27.5 °F 32.0 °F 92% 29.62 in 10.0 mi SSW 8.1 mph - N/A   Overcast
8:29 PM 34.3 °F 27.7 °F 32.0 °F 91% 29.60 in 10.0 mi South 8.1 mph - N/A   Overcast
8:50 PM 34.7 °F 28.8 °F 32.0 °F 90% 29.59 in 10.0 mi South 6.9 mph - N/A   Overcast
9:10 PM 34.9 °F 27.7 °F 32.0 °F 89% 29.59 in 10.0 mi SSW 9.2 mph - N/A   Overcast
9:29 PM 35.2 °F 27.1 °F 32.0 °F 88% 29.58 in 10.0 mi SSW 11.5 mph - N/A   Light Drizzle
9:50 PM 35.8 °F 28.8 °F 32.4 °F 87% 29.58 in 10.0 mi SW 9.2 mph - N/A   Light Drizzle
10:09 PM 35.8 °F 28.8 °F 32.7 °F 89% 29.57 in 10.0 mi SW 9.2 mph - N/A   Overcast
10:29 PM 35.6 °F 29.2 °F 32.7 °F 89% 29.56 in 10.0 mi SSW 8.1 mph - N/A   Overcast
10:49 PM 35.4 °F 29.0 °F 32.9 °F 91% 29.56 in 10.0 mi SW 8.1 mph - N/A   Overcast
11:09 PM 35.1 °F 27.9 °F 32.9 °F 92% 29.56 in 10.0 mi SW 9.2 mph - N/A   Overcast
11:29 PM 35.6 °F 29.2 °F 32.9 °F 90% 29.56 in 10.0 mi SW 8.1 mph - N/A   Overcast
11:50 PM 36.0 °F 29.0 °F 32.5 °F 87% 29.57 in 10.0 mi WSW 9.2 mph - N/A   Overcast